This demonstration page uses our WeatherBlox Daily Observations layout. Learn more.

38.89511, -77.03637

Hourly Observations for October 24, 2015

Temp ( °F °C ) Dew Point ( °F °C ) Humidity (%) Winds ( mph kmh ) Pressure ( in mb ) Visibility ( mi km ) Precip ( " mm )
12:52 am 00:52 Mostly Clear 52 11.1 42 5.6 69 69 ENE 5 7 30.31 1026 10 16.0934 0 0
1:52 am 01:52 Mostly Cloudy 51 10.6 41 5 69 69 NE 7 11 30.31 1027 10 16.0934 0 0
2:52 am 02:52 Partly Cloudy 49 9.4 42 5.6 77 77 ENE 5 7 30.31 1026 10 16.0934 0 0
3:52 am 03:52 Partly Cloudy 49 9.4 41 5 74 74 ENE 5 7 30.31 1026 10 16.0934 0 0
4:52 am 04:52 Partly Cloudy 48 8.9 41 5 77 77 ENE 5 7 30.31 1026 10 16.0934 0 0
5:52 am 05:52 Partly Cloudy 47 8.3 41 5 80 80 NE 6 9 30.32 1027 10 16.0934 0 0
6:04 am 06:04 Mostly Cloudy 46 8 41 5 82 82 NE 6 9 30.33 1027 10 16.0934 0 0
6:52 am 06:52 Mostly Cloudy 48 8.9 41 5 77 77 NNE 7 11 30.33 1027 10 16.0934 0 0
7:52 am 07:52 Mostly Cloudy 48 8.9 41 5 77 77 NNE 5 7 30.34 1028 10 16.0934 0 0
8:52 am 08:52 Mostly Cloudy 50 10 42 5.6 74 74 NE 6 9 30.35 1028 10 16.0934 0 0
9:52 am 09:52 Mostly Cloudy 51 10.6 43 6.1 74 74 ENE 3 6 30.36 1028 10 16.0934 0 0
10:52 am 10:52 Cloudy 53 11.7 44 6.7 72 72 Calm 30.35 1028 10 16.0934 0 0
11:52 am 11:52 Cloudy 55 12.8 46 7.8 72 72 SE 3 6 30.35 1028 10 16.0934 0 0
12:52 pm 12:52 Cloudy 59 15 47 8.3 64 64 SSE 8 13 30.33 1027 10 16.0934 0 0
1:52 pm 13:52 Cloudy 61 16.1 47 8.3 60 60 SSE 9 15 30.29 1026 10 16.0934 0 0
2:52 pm 14:52 Cloudy 60 15.6 45 7.2 58 58 SSE 7 11 30.28 1025 10 16.0934 0 0
3:52 pm 15:52 Cloudy 61 16.1 45 7.2 56 56 S 8 13 30.27 1025 10 16.0934 0 0
4:52 pm 16:52 Cloudy 61 16.1 47 8.3 60 60 SSE 9 15 30.26 1025 10 16.0934 0 0
5:52 pm 17:52 Cloudy 60 15.6 48 8.9 65 65 SSE 8 13 30.24 1024 10 16.0934 0 0
6:52 pm 18:52 Cloudy 60 15.6 48 8.9 65 65 S 7 11 30.25 1024 10 16.0934 0 0
7:52 pm 19:52 Cloudy 59 15 48 8.9 67 67 S 6 9 30.24 1024 10 16.0934 0 0
7:59 pm 19:59 Cloudy 59 15 48 9 68 68 S 6 9 30.24 1024 10 16.0934 0 0
8:52 pm 20:52 Cloudy 59 15 49 9.4 69 69 SSE 6 9 30.22 1023 10 16.0934 0 0
9:44 pm 21:44 Cloudy 59 15 50 10 72 72 S 9 15 30.21 1023 10 16.0934 0 0
9:52 pm 21:52 Cloudy 59 15 50 10 72 72 S 12 19 30.22 1023 10 16.0934 0 0
10:52 pm 22:52 Cloudy 59 15 51 10.6 75 75 S 9 15 30.2 1023 10 16.0934 0 0
11:52 pm 23:52 Cloudy 58 14.4 51 10.6 78 78 S 9 15 30.19 1022 10 16.0934 0 0

Powered by AerisWeather